SCP
0 0 0 0 0 0 0 0 0 0 0 0 0 0 0 0 0 0 0 0 0 0 0 0 0 0 0 0 0 0 0 0 0 0 0 0 0 0 0 0 0 0 0
0 0 0 0 0 0 0 -0 -0 0 0 0 0 0 0 0 0 0 0 0 0 0 0 0 0 0 0 0 0 0 0 0 0 0 0 0 0 0 0 0 0 0 0
0 0 0 0 0 0 -0 -0 0 0 0 0 0 0 0 0 0 0 0 0 0 0 0 0 0 0 0 0 0 0 0 0 0 0 0 0 0 0 0 0 0 0 0
0 0 0 0 0 0 -0 -0 0 0 0 0 0 0 0 0 0 0 0 0 0 0 0 0 0 0 0 0 0 0 0 0 0 0 0 0 0 0 0 0 0 0 0
0 0 0 0 0 0 0 0 0 0 0 0 0 0 0 0 0 0 0 0 0 0 0 0 0 0 0 0 0 0 0 0 0 0 0 0 0 0 0 0 0 0 0
0 0 0 0 0 0 0 0 0 0 0 0 0 0 -0 -0 0 0 0 0 0 0 0 0 0 0 0 0 0 0 0 0 0 0 0 0 0 0 0 0 0 0 0
0 0 0 0 0 0 0 0 0 0 0 -0 -0 -0 -0 -0 0 0 0 0 0 0 0 0 0 0 0 0 0 0 0 0 0 0 0 0 0 0 0 0 0 0 0
0 0 0 0 0 0 0 0 0 0 -0 -0 0 0 0 0 0 0 0 0 0 0 0 0 0 0 0 0 0 0 0 0 0 0 0 0 0 0 0 0 0 0 0
0 0 0 0 0 0 0 0 0 0 0 0 0 0 0 0 0 0 0 0 0 0 0 0 0 0 0 0 0 0 0 0 0 0 0 0 0 0 0 0 0 0 0
0 0 0 0 0 0 0 0 0 0 0 0 0 0 0 0 0 0 0 0 0 0 0 0 0 0 0 0 0 0 0 0 0 0 0 0 0 0 0 0 0 0 0
0 0 0 0 0 0 0 0 0 0 0 0 0 0 0 0 0 0 0 0 0 0 0 0 0 0 0 0 0 0 0 0 0 0 0 0 0 0 0 0 0 0 0
0 -0 -0 -0 0 0 0 0 0 0 0 0 0 0 0 0 0 0 0 0 0 0 0 0 0 0 0 0 0 0 0 0 0 0 0 0 0 0 0 0 0 0 0
-0 -0 0 0 0 0 0 0 0 0 0 0 0 0 0 0 0 0 0 0 0 0 0 0 0 0 0 0 0 0 0 0 0 0 0 0 0 0 0 0 0 0 0
0 0 0 0 0 0 0 0 0 0 0 0 0 0 0 0 0 0 0 0 0 0 0 0 0 0 0 0 0 0 0 0 0 0 0 0 0 0 0 0 0 0 0
0 0 0 0 0 0 0 0 0 0 0 0 0 0 0 0 0 0 0 0 0 0 0 0 0 0 0 0 0 0 0 0 0 0 0 0 0 0 0 0 0 0 0
0 0 0 0 0 0 0 0 0 0 0 0 0 0 0 0 0 0 0 0 0 0 0 0 0 0 0 0 0 0 0 0 0 0 0 0 0 0 0 0 0 0 0
0 0 0 0 0 0 0 0 0 0 0 0 0 0 0 0 0 0 0 0 0 0 0 0 0 0 -0 -0 -0 -0 -0 0 0 0 0 0 0 0 0 0 0 0 0
0 0 0 0 0 0 0 0 0 0 0 0 0 0 0 0 0 0 0 0 0 0 0 0 0 0 -0 -0 -0 -0 -0 -0 0 0 0 0 0 0 0 0 0 0 0
0 0 0 0 0 0 0 0 0 0 0 0 0 0 0 0 0 0 0 0 0 0 0 0 0 0 -0 -0 -0 -0 -0 0 0 0 0 0 0 0 0 0 0 0 0
0 0 0 0 0 0 0 0 0 0 0 0 0 0 0 0 0 0 0 0 0 0 0 0 0 0 -0 -0 -0 -0 -0 -0 0 0 0 0 0 0 0 0 0 0 0
0 0 0 0 0 0 0 0 0 0 0 0 0 0 0 0 0 0 0 0 0 0 0 0 0 0 0 0 0 -0 -0 0 0 0 0 0 0 0 0 0 0 0 0
0 0 0 0 0 0 0 0 0 0 0 0 0 0 0 0 0 0 0 0 0 0 0 0 0 0 0 0 0 0 0 0 0 0 -0 0 0 0 0 0 0 0 0
0 0 0 0 0 0 0 0 0 0 0 0 0 0 0 0 0 0 0 0 0 0 0 0 0 0 0 0 0 0 0 0 0 0 0 -0 0 0 0 0 0 0 0
0 0 0 0 0 0 0 0 0 0 0 0 0 0 0 0 0 0 0 0 0 0 0 0 0 0 0 0 0 0 0 0 0 -0 -0 0 0 0 0 0 0 -0 0
0 0 0 0 0 0 0 0 0 0 0 0 0 0 0 0 0 0 -0 -0 0 0 0 0 -0 -0 0 0 0 0 0 0 0 0 0 0 0 0 0 0 0 0 0
0 0 0 0 0 0 0 0 0 0 0 0 0 0 0 0 0 0 -0 -0 -0 -0 -0 -0 -0 -0 -0 0 0 0 0 0 0 0 0 0 0 0 0 0 0 -0 0
Wind_Speed_500mb
6 13 26 38 48 52 52 54 56 58 57 54 52 52 50 48 48 48 49 52 53 55 57 60 61 61 64 68 69 70 71 70 77 82 66 61 64 61 51 51 63 71 56
12 14 23 32 40 45 57 60 59 61 59 57 57 58 57 55 55 56 57 55 55 59 64 66 65 62 61 62 64 70 76 80 83 92 77 71 65 75 75 68 57 53 49
14 22 31 38 42 48 54 57 63 61 60 57 53 50 51 52 53 55 58 59 59 61 64 66 66 64 65 63 62 67 73 74 73 77 79 77 79 78 77 70 63 53 52
24 30 35 39 48 54 58 62 68 70 67 66 60 56 56 57 57 60 62 63 64 65 64 66 69 70 71 72 68 65 61 59 58 61 70 76 76 76 72 70 65 65 71
23 32 40 47 56 62 66 75 74 71 72 70 70 72 73 73 77 78 78 79 81 82 82 83 84 84 84 83 79 80 79 77 73 71 68 64 70 73 75 71 65 65 64
36 44 52 58 58 66 70 73 76 78 78 79 84 87 91 94 92 93 94 96 95 96 99 100 98 95 95 95 92 92 92 90 89 87 85 68 70 65 65 71 68 60 62
42 41 44 51 56 60 65 70 76 81 83 89 94 101 105 107 100 93 87 87 89 93 96 98 101 103 104 105 103 98 96 97 95 89 89 90 86 77 71 68 71 72 63
39 42 45 49 54 59 65 71 78 85 92 100 104 106 99 87 76 65 61 66 69 70 69 69 68 68 64 63 63 65 66 64 67 65 66 66 62 69 73 71 74 70 63
37 42 46 52 59 67 75 82 89 98 103 105 94 85 69 63 57 56 56 60 63 63 61 59 58 52 49 51 55 55 61 65 63 65 64 65 68 66 70 70 58 62 72
43 49 54 61 69 77 86 93 100 98 91 79 68 60 55 55 51 54 56 57 60 58 55 54 55 51 50 45 44 43 48 58 53 54 53 52 45 57 69 82 88 80 59
56 62 68 75 83 89 93 90 83 74 67 59 56 50 51 56 56 57 49 48 49 51 54 56 57 53 46 45 44 47 51 48 52 56 59 56 53 57 70 69 71 89 100
75 80 83 84 83 79 74 69 61 53 50 49 53 53 53 51 56 58 51 43 43 49 56 58 56 51 51 50 52 50 48 50 58 63 61 60 62 53 53 49 57 61 100
77 76 72 68 63 57 54 48 44 40 44 48 49 50 58 59 62 61 54 46 43 51 57 54 52 53 50 51 51 50 48 53 56 58 62 63 50 44 47 39 38 59 72
64 59 54 52 48 42 37 35 37 40 42 45 50 52 55 57 56 51 51 54 59 62 61 58 55 53 56 59 57 52 47 45 48 51 53 44 48 45 41 42 36 48 57
51 46 44 42 40 37 33 34 38 35 36 46 45 46 52 57 52 47 51 61 62 60 56 56 56 56 55 52 48 41 32 35 36 34 39 39 36 29 32 31 32 41 54
44 42 40 39 37 38 40 36 29 37 38 42 44 44 50 47 47 49 53 51 53 49 45 45 46 46 44 40 30 18 25 28 25 29 26 27 31 28 24 23 27 39 55
39 38 36 34 36 40 41 44 50 43 45 47 44 40 37 36 43 45 41 46 48 41 32 29 31 31 29 18 16 17 24 26 18 24 22 23 25 19 19 24 27 31 41
30 28 30 33 37 38 39 40 42 50 57 53 42 39 36 38 38 36 41 44 41 28 21 20 18 15 16 15 18 27 31 26 25 28 27 25 20 22 27 31 32 36 36
31 30 31 32 32 34 35 35 36 40 42 48 46 37 37 40 30 32 37 37 25 27 28 23 31 32 33 31 26 22 24 28 28 20 10 11 13 18 21 27 32 39 37
29 29 32 33 34 35 35 37 39 42 43 44 42 40 41 38 38 41 35 31 27 32 39 48 43 39 34 29 22 23 27 25 14 8 7 7 10 12 25 20 24 28 28
38 39 38 38 39 40 40 40 41 41 42 41 37 30 28 32 34 36 29 33 32 39 49 55 55 62 38 23 15 15 11 6 4 6 14 16 20 14 15 28 25 24 29
43 44 47 47 46 47 48 48 48 45 42 41 37 29 23 26 27 30 27 27 28 35 41 44 51 51 43 25 14 17 17 11 14 14 16 18 17 22 26 28 27 35 42
41 43 47 48 53 53 55 55 55 53 48 43 41 35 29 25 26 27 22 25 32 32 33 40 53 52 48 31 28 20 4 6 14 20 24 22 28 27 33 32 47 46 44
40 42 44 48 54 58 60 61 60 58 57 53 46 40 34 28 25 23 19 22 27 24 28 49 50 48 56 42 34 31 21 6 12 23 27 27 35 40 42 52 44 39 37
38 41 45 49 51 55 59 63 65 65 63 60 54 46 38 31 25 21 16 16 27 24 26 42 45 47 50 56 38 26 26 28 30 24 35 45 43 38 46 35 29 20 21
43 44 48 47 48 52 56 60 64 67 68 66 61 54 45 38 30 23 18 13 21 16 20 31 34 40 43 43 46 29 21 23 26 28 33 34 35 30 33 36 16 23 22
Wind_Direction_500mb
315 321 324 328 332 330 327 325 323 323 323 319 317 312 309 304 301 292 280 277 277 274 271 271 271 270 270 272 272 273 272 271 275 279 279 277 281 280 277 274 279 284 282
242 285 303 313 318 318 322 318 317 319 319 318 318 317 313 310 307 303 300 295 290 284 278 277 280 279 276 273 273 272 272 271 271 274 277 276 271 274 280 282 276 269 263
256 279 292 302 306 311 320 318 315 314 312 311 311 309 308 308 306 304 301 299 294 291 288 284 282 281 280 279 277 275 272 271 270 271 276 276 277 277 278 278 278 258 257
273 284 290 296 307 315 316 317 314 310 310 311 310 309 309 308 305 302 299 295 292 291 289 289 290 286 282 279 277 274 272 273 273 272 277 277 276 273 275 274 266 257 263
296 306 312 314 313 313 311 313 314 312 308 306 305 303 302 302 301 299 296 294 291 289 286 284 283 281 279 279 279 278 278 277 276 276 277 273 269 271 272 272 268 271 274
316 314 312 310 306 307 308 309 310 310 305 304 304 304 304 301 299 296 294 291 289 287 286 284 281 278 277 276 275 276 278 279 277 276 275 270 270 266 267 268 267 264 267
315 311 302 300 301 302 303 304 304 304 304 304 303 303 302 301 300 298 297 294 292 288 287 286 286 283 281 278 279 278 275 274 274 274 272 268 266 266 266 263 260 260 257
299 296 294 295 298 299 301 301 302 303 305 305 305 303 302 302 303 302 301 299 297 296 294 293 292 292 288 282 279 277 275 272 269 266 261 260 264 263 257 260 261 252 251
294 298 299 300 301 301 301 302 304 306 306 306 305 307 309 309 310 306 305 304 301 300 299 297 296 294 290 288 289 287 285 279 275 275 274 269 258 242 239 240 239 251 255
300 301 301 301 302 303 304 306 306 307 307 308 309 310 312 313 311 309 307 305 301 300 299 295 294 291 288 290 288 280 284 289 292 291 287 281 274 258 251 246 245 248 252
300 300 302 302 304 304 305 306 306 307 308 312 313 314 313 312 307 306 315 313 310 309 306 304 299 297 294 292 291 284 280 292 292 289 283 276 275 267 256 253 244 237 240
306 306 306 307 307 307 307 307 310 313 317 323 319 319 318 322 321 316 317 310 307 306 306 304 299 294 291 289 286 280 280 285 284 287 278 270 272 269 275 262 248 239 234
308 307 307 307 309 312 312 314 317 323 323 321 323 325 325 321 316 318 321 313 302 303 302 302 296 294 291 287 286 285 283 284 282 278 272 274 266 272 277 248 246 227 226
312 313 314 315 319 321 320 323 327 329 329 326 325 325 325 325 328 329 324 320 313 307 302 299 294 288 285 285 285 285 286 283 281 275 273 267 273 268 257 244 243 217 213
319 321 323 324 325 325 329 333 327 332 330 331 331 328 328 324 328 326 322 318 315 305 298 291 288 287 291 294 292 285 280 292 284 271 273 273 265 257 244 229 212 197 205
326 330 329 329 334 333 329 323 324 329 328 330 335 335 328 322 327 323 321 322 325 317 303 296 293 293 294 299 295 276 306 298 292 287 274 269 264 258 222 219 196 212 214
332 332 336 338 332 332 333 333 330 329 335 343 345 340 333 322 326 326 330 332 331 324 318 313 304 302 303 304 287 288 309 307 272 255 248 235 238 239 230 221 223 210 210
343 344 341 339 339 338 336 333 333 335 337 344 352 347 344 339 340 348 347 342 344 350 352 354 355 352 336 318 284 283 301 301 282 281 282 280 260 211 222 222 226 216 216
359 357 354 348 345 343 339 339 337 339 342 343 347 354 356 356 4 1 2 356 7 22 24 21 358 342 330 324 322 321 319 320 322 328 277 229 227 228 212 209 209 208 208
12 12 11 4 2 359 355 350 347 347 345 346 351 354 357 2 6 9 8 3 351 346 349 354 360 357 343 333 315 300 295 301 301 264 192 178 199 189 167 173 158 167 177
29 28 28 25 21 15 9 4 357 353 351 352 354 358 1 2 2 2 355 1 359 355 354 352 354 350 345 330 326 318 311 285 191 193 168 165 190 203 204 189 182 184 171
37 33 33 30 29 25 22 17 12 6 2 358 357 2 1 6 8 360 350 353 1 356 354 356 353 343 354 358 350 296 285 259 204 196 198 180 181 180 175 176 178 170 174
33 35 35 33 33 29 28 24 20 16 12 9 4 3 1 6 4 4 351 338 348 353 -0 8 13 31 13 34 32 26 20 203 208 187 162 157 159 168 165 165 159 154 164
31 33 33 34 34 32 30 27 24 22 19 15 11 8 5 2 5 1 350 337 346 352 7 18 31 32 24 28 45 40 40 72 151 177 182 165 158 146 145 143 140 159 169
26 31 32 31 31 31 30 29 27 24 23 18 15 12 9 5 4 1 347 319 346 350 18 28 41 35 25 19 33 61 45 74 111 126 141 140 140 140 143 150 154 151 207
30 37 32 29 30 31 30 29 28 27 24 23 20 17 12 10 5 2 351 293 327 344 5 23 35 37 31 21 22 44 70 83 110 107 118 124 139 146 154 163 203 253 228
Wind_Speed_850mb
6 13 26 38 48 52 52 54 56 58 57 54 52 52 50 48 48 48 49 52 53 55 57 60 61 61 64 68 69 70 71 70 77 82 66 61 64 61 51 51 63 71 56
12 14 23 32 40 45 57 60 59 61 59 57 57 58 57 55 55 56 57 55 55 59 64 66 65 62 61 62 64 70 76 80 83 92 77 71 65 75 75 68 57 53 49
14 22 31 38 42 48 54 57 63 61 60 57 53 50 51 52 53 55 58 59 59 61 64 66 66 64 65 63 62 67 73 74 73 77 79 77 79 78 77 70 63 53 52
24 30 35 39 48 54 58 62 68 70 67 66 60 56 56 57 57 60 62 63 64 65 64 66 69 70 71 72 68 65 61 59 58 61 70 76 76 76 72 70 65 65 71
23 32 40 47 56 62 66 75 74 71 72 70 70 72 73 73 77 78 78 79 81 82 82 83 84 84 84 83 79 80 79 77 73 71 68 64 70 73 75 71 65 65 64
36 44 52 58 58 66 70 73 76 78 78 79 84 87 91 94 92 93 94 96 95 96 99 100 98 95 95 95 92 92 92 90 89 87 85 68 70 65 65 71 68 60 62
42 41 44 51 56 60 65 70 76 81 83 89 94 101 105 107 100 93 87 87 89 93 96 98 101 103 104 105 103 98 96 97 95 89 89 90 86 77 71 68 71 72 63
39 42 45 49 54 59 65 71 78 85 92 100 104 106 99 87 76 65 61 66 69 70 69 69 68 68 64 63 63 65 66 64 67 65 66 66 62 69 73 71 74 70 63
37 42 46 52 59 67 75 82 89 98 103 105 94 85 69 63 57 56 56 60 63 63 61 59 58 52 49 51 55 55 61 65 63 65 64 65 68 66 70 70 58 62 72
43 49 54 61 69 77 86 93 100 98 91 79 68 60 55 55 51 54 56 57 60 58 55 54 55 51 50 45 44 43 48 58 53 54 53 52 45 57 69 82 88 80 59
56 62 68 75 83 89 93 90 83 74 67 59 56 50 51 56 56 57 49 48 49 51 54 56 57 53 46 45 44 47 51 48 52 56 59 56 53 57 70 69 71 89 100
75 80 83 84 83 79 74 69 61 53 50 49 53 53 53 51 56 58 51 43 43 49 56 58 56 51 51 50 52 50 48 50 58 63 61 60 62 53 53 49 57 61 100
77 76 72 68 63 57 54 48 44 40 44 48 49 50 58 59 62 61 54 46 43 51 57 54 52 53 50 51 51 50 48 53 56 58 62 63 50 44 47 39 38 59 72
64 59 54 52 48 42 37 35 37 40 42 45 50 52 55 57 56 51 51 54 59 62 61 58 55 53 56 59 57 52 47 45 48 51 53 44 48 45 41 42 36 48 57
51 46 44 42 40 37 33 34 38 35 36 46 45 46 52 57 52 47 51 61 62 60 56 56 56 56 55 52 48 41 32 35 36 34 39 39 36 29 32 31 32 41 54
44 42 40 39 37 38 40 36 29 37 38 42 44 44 50 47 47 49 53 51 53 49 45 45 46 46 44 40 30 18 25 28 25 29 26 27 31 28 24 23 27 39 55
39 38 36 34 36 40 41 44 50 43 45 47 44 40 37 36 43 45 41 46 48 41 32 29 31 31 29 18 16 17 24 26 18 24 22 23 25 19 19 24 27 31 41
30 28 30 33 37 38 39 40 42 50 57 53 42 39 36 38 38 36 41 44 41 28 21 20 18 15 16 15 18 27 31 26 25 28 27 25 20 22 27 31 32 36 36
31 30 31 32 32 34 35 35 36 40 42 48 46 37 37 40 30 32 37 37 25 27 28 23 31 32 33 31 26 22 24 28 28 20 10 11 13 18 21 27 32 39 37
29 29 32 33 34 35 35 37 39 42 43 44 42 40 41 38 38 41 35 31 27 32 39 48 43 39 34 29 22 23 27 25 14 8 7 7 10 12 25 20 24 28 28
38 39 38 38 39 40 40 40 41 41 42 41 37 30 28 32 34 36 29 33 32 39 49 55 55 62 38 23 15 15 11 6 4 6 14 16 20 14 15 28 25 24 29
43 44 47 47 46 47 48 48 48 45 42 41 37 29 23 26 27 30 27 27 28 35 41 44 51 51 43 25 14 17 17 11 14 14 16 18 17 22 26 28 27 35 42
41 43 47 48 53 53 55 55 55 53 48 43 41 35 29 25 26 27 22 25 32 32 33 40 53 52 48 31 28 20 4 6 14 20 24 22 28 27 33 32 47 46 44
40 42 44 48 54 58 60 61 60 58 57 53 46 40 34 28 25 23 19 22 27 24 28 49 50 48 56 42 34 31 21 6 12 23 27 27 35 40 42 52 44 39 37
38 41 45 49 51 55 59 63 65 65 63 60 54 46 38 31 25 21 16 16 27 24 26 42 45 47 50 56 38 26 26 28 30 24 35 45 43 38 46 35 29 20 21
43 44 48 47 48 52 56 60 64 67 68 66 61 54 45 38 30 23 18 13 21 16 20 31 34 40 43 43 46 29 21 23 26 28 33 34 35 30 33 36 16 23 22
Wind_Direction_850mb
315 321 324 328 332 330 327 325 323 323 323 319 317 312 309 304 301 292 280 277 277 274 271 271 271 270 270 272 272 273 272 271 275 279 279 277 281 280 277 274 279 284 282
242 285 303 313 318 318 322 318 317 319 319 318 318 317 313 310 307 303 300 295 290 284 278 277 280 279 276 273 273 272 272 271 271 274 277 276 271 274 280 282 276 269 263
256 279 292 302 306 311 320 318 315 314 312 311 311 309 308 308 306 304 301 299 294 291 288 284 282 281 280 279 277 275 272 271 270 271 276 276 277 277 278 278 278 258 257
273 284 290 296 307 315 316 317 314 310 310 311 310 309 309 308 305 302 299 295 292 291 289 289 290 286 282 279 277 274 272 273 273 272 277 277 276 273 275 274 266 257 263
296 306 312 314 313 313 311 313 314 312 308 306 305 303 302 302 301 299 296 294 291 289 286 284 283 281 279 279 279 278 278 277 276 276 277 273 269 271 272 272 268 271 274
316 314 312 310 306 307 308 309 310 310 305 304 304 304 304 301 299 296 294 291 289 287 286 284 281 278 277 276 275 276 278 279 277 276 275 270 270 266 267 268 267 264 267
315 311 302 300 301 302 303 304 304 304 304 304 303 303 302 301 300 298 297 294 292 288 287 286 286 283 281 278 279 278 275 274 274 274 272 268 266 266 266 263 260 260 257
299 296 294 295 298 299 301 301 302 303 305 305 305 303 302 302 303 302 301 299 297 296 294 293 292 292 288 282 279 277 275 272 269 266 261 260 264 263 257 260 261 252 251
294 298 299 300 301 301 301 302 304 306 306 306 305 307 309 309 310 306 305 304 301 300 299 297 296 294 290 288 289 287 285 279 275 275 274 269 258 242 239 240 239 251 255
300 301 301 301 302 303 304 306 306 307 307 308 309 310 312 313 311 309 307 305 301 300 299 295 294 291 288 290 288 280 284 289 292 291 287 281 274 258 251 246 245 248 252
300 300 302 302 304 304 305 306 306 307 308 312 313 314 313 312 307 306 315 313 310 309 306 304 299 297 294 292 291 284 280 292 292 289 283 276 275 267 256 253 244 237 240
306 306 306 307 307 307 307 307 310 313 317 323 319 319 318 322 321 316 317 310 307 306 306 304 299 294 291 289 286 280 280 285 284 287 278 270 272 269 275 262 248 239 234
308 307 307 307 309 312 312 314 317 323 323 321 323 325 325 321 316 318 321 313 302 303 302 302 296 294 291 287 286 285 283 284 282 278 272 274 266 272 277 248 246 227 226
312 313 314 315 319 321 320 323 327 329 329 326 325 325 325 325 328 329 324 320 313 307 302 299 294 288 285 285 285 285 286 283 281 275 273 267 273 268 257 244 243 217 213
319 321 323 324 325 325 329 333 327 332 330 331 331 328 328 324 328 326 322 318 315 305 298 291 288 287 291 294 292 285 280 292 284 271 273 273 265 257 244 229 212 197 205
326 330 329 329 334 333 329 323 324 329 328 330 335 335 328 322 327 323 321 322 325 317 303 296 293 293 294 299 295 276 306 298 292 287 274 269 264 258 222 219 196 212 214
332 332 336 338 332 332 333 333 330 329 335 343 345 340 333 322 326 326 330 332 331 324 318 313 304 302 303 304 287 288 309 307 272 255 248 235 238 239 230 221 223 210 210
343 344 341 339 339 338 336 333 333 335 337 344 352 347 344 339 340 348 347 342 344 350 352 354 355 352 336 318 284 283 301 301 282 281 282 280 260 211 222 222 226 216 216
359 357 354 348 345 343 339 339 337 339 342 343 347 354 356 356 4 1 2 356 7 22 24 21 358 342 330 324 322 321 319 320 322 328 277 229 227 228 212 209 209 208 208
12 12 11 4 2 359 355 350 347 347 345 346 351 354 357 2 6 9 8 3 351 346 349 354 360 357 343 333 315 300 295 301 301 264 192 178 199 189 167 173 158 167 177
29 28 28 25 21 15 9 4 357 353 351 352 354 358 1 2 2 2 355 1 359 355 354 352 354 350 345 330 326 318 311 285 191 193 168 165 190 203 204 189 182 184 171
37 33 33 30 29 25 22 17 12 6 2 358 357 2 1 6 8 360 350 353 1 356 354 356 353 343 354 358 350 296 285 259 204 196 198 180 181 180 175 176 178 170 174
33 35 35 33 33 29 28 24 20 16 12 9 4 3 1 6 4 4 351 338 348 353 -0 8 13 31 13 34 32 26 20 203 208 187 162 157 159 168 165 165 159 154 164
31 33 33 34 34 32 30 27 24 22 19 15 11 8 5 2 5 1 350 337 346 352 7 18 31 32 24 28 45 40 40 72 151 177 182 165 158 146 145 143 140 159 169
26 31 32 31 31 31 30 29 27 24 23 18 15 12 9 5 4 1 347 319 346 350 18 28 41 35 25 19 33 61 45 74 111 126 141 140 140 140 143 150 154 151 207
30 37 32 29 30 31 30 29 28 27 24 23 20 17 12 10 5 2 351 293 327 344 5 23 35 37 31 21 22 44 70 83 110 107 118 124 139 146 154 163 203 253 228